www.pogodaiklimat.ru

Погода и климат >> Архив погоды >> Россия >> Магаданская область >> Сеймчан


АРХИВ ПОГОДЫ в Сеймчане

Время (UTC), дата Ветер
(напр.,м/с)
 
Видим.   Явления Облачность Т
(С)
Тd
(С)
f
(%)
Тe
(С)
Тes
(С)
Комфортность P
(гПа)
Po
(гПа)
Тmin
(С)
Tmax
(С)
R
(мм)
R24
(мм)
S
(см)
09 19.04 С 2 20 км слаб. ливневой снег 10/8 1000 м
[Cb calv As op]
+0.9 -3.1 75 -2 -2 1020.7 994.4 +5.2 0.0
12 19.04 СВ 1 50 км {ливн. осадки} 10/5 1000 м
[Sc As op]
-0.4 -3.3 81 -2 -2 1020.2 993.8
15 19.04 С 1 50 км 10/4 1000 м
[Sc As op]
-2.1 -3.4 91 -4 -4 1020.1 993.5
18 19.04 штиль 0 50 км 10/4 1000 м
[Sc As op]
-3.6 -4.5 93 -5 -5 1019.0 992.3
21 19.04 В 1 20 км 10/8 1000 м
[Sc As op]
-1.3 -3.8 83 -3 -3 1017.7 991.3 -3.9 0.0 37
00 20.04 Ю 2 20 км 10/4 1000 м
[Cb calv As trans]
+2.1 -3.3 67 -1 +1 1017.2 991.1
03 20.04 З 4 50 км 9/4 1000 м
[Cb calv Ac trans Ci fib]
+4.6 -2.6 60 +1 +3 1017.4 991.5
06 20.04 СВ 2 50 км 9/6 1000 м
[Cb calv Ac trans]
+5.1 -2.6 57 +3 +4 1017.8 991.9
09 20.04 СВ 3 20 км 9/8 1320 м
[Sc Ac trans]
+3.6 -2.5 64 0 0 1019.0 993.0 +5.5
12 20.04 СВ 2 50 км 9/6 1000 м
[Sc Ac trans]
+1.3 -3.5 70 -2 -2 1020.4 994.1
15 20.04 С 2 50 км 10/6 1000 м
[Sc As op]
+0.1 -4.4 72 -3 -3 1020.8 994.4
18 20.04 СВ 2 4000 м слаб. снег 10/8 1000 м
[Sc As op]
-1.2 -4.1 81 -5 -5 1021.2 994.7
21 20.04 СВ 2 20 км слаб. снег 10/5 1000 м
[Sc As op]
-1.0 -3.6 82 -5 -5 1021.0 994.5 -1.8 0.5 32
00 21.04 штиль 0 20 км {снег} 9/8 1000 м
[Sc Ac trans]
+4.3 -2.9 59 +4 +5 1019.4 993.5
03 21.04 Ю 1 50 км 8/8 1000 м
[Cu hum]
+6.4 -2.3 54 +6 +8 1018.2 992.4
06 21.04 Ю 2 50 км 8/1 1000 м
[Cu hum Ci fib]
+6.2 -2.2 55 +4 +7 1016.9 991.2
09 21.04 ЮЗ 2 50 км 9/0
[Ci fib]
+4.0 -4.0 56 +2 +2 1017.0 991.1 +6.5 0.0
12 21.04 Ю 2 50 км 8/0
[Ci fib]
-0.1 -4.7 71 -3 -3 1017.3 991.0
15 21.04 Ю 3 50 км 6/0
[Ci fib]
+0.3 -5.1 67 -4 -4 1016.8 990.6
18 21.04 Ю 2 50 км 8/0
[Ac trans Ci fib]
-0.9 -5.4 71 -4 -4 1016.5 990.1
21 21.04 Ю 3 50 км 9/0
[Ac trans Ci fib]
+2.3 -4.4 61 -1 0 1015.7 989.6 -2.2 25
00 22.04 Ю 3 50 км 9/0
[Ci fib]
+5.0 -3.7 53 +2 +8 1014.9 989.1
03 22.04 ЮЗ 3 50 км 9/4 1000 м
[Sc Ci fib]
+5.5 -4.0 50 +3 +6 1013.8 988.1
06 22.04 ЮЗ 3 50 км 9/3 1000 м
[Sc Ci fib]
+5.1 -5.3 47 +2 +4 1013.0 987.3
09 22.04 Ю 3 50 км 10/3 1000 м
[Sc Cs]
+3.5 -4.8 55 0 0 1012.9 987.0 +5.6
12 22.04 Ю 3 50 км 10/0
[Cs]
+0.9 -5.6 62 -3 -3 1013.4 987.3
15 22.04 Ю 3 50 км 10/0
[Ac trans Cs]
-0.2 -6.4 63 -4 -4 1013.4 987.2
18 22.04 Ю 3 50 км 10/3 1000 м
[Sc Ac trans Cs]
-1.1 -7.2 63 -6 -6 1013.5 987.2
21 22.04 Ю 3 50 км 9/3 1000 м
[Sc Ac trans Ci fib]
+0.3 -7.2 57 -4 -3 1013.4 987.2 -1.2 22
00 23.04 Ю 2 50 км 10/5 1000 м
[Sc Ac trans Cs]
+2.3 -6.2 53 -0 +2 1013.1 987.1
03 23.04 Ю 3 50 км 9/1 1000 м
[Sc Ac trans Ci fib]
+4.2 -5.6 49 +1 +5 1012.0 986.2
06 23.04 Ю 3 50 км 10/4 1000 м
[Sc Ac trans Cs]
+4.6 -4.4 52 +2 +3 1011.6 985.8
09 23.04 Ю 1 50 км 9/3 1000 м
[Sc Ac trans Ci fib]
+3.6 -4.2 57 +3 +3 1011.7 985.9 +5.3
12 23.04 штиль 0 50 км 9/0
[Ac trans Ci fib]
-2.2 -3.8 89 -3 -3 1012.6 986.2
15 23.04 Ю 1 50 км 10/3 1000 м
[Sc Ac trans Cs]
+0.2 -3.7 75 -2 -2 1012.9 986.7
18 23.04 Ю 3 50 км 10/5 1000 м
[Cb calv Ac As]
+0.5 -1.7 85 -4 -4 1013.5 987.3
21 23.04 Ю 2 50 км 9/3 1000 м
[Sc Ac trans]
+2.5 -2.9 68 -0 +1 1013.2 987.2 -2.9 15
00 24.04 ЮЗ 2 50 км 9/8 1000 м
[Cu Sc Ac trans]
+3.7 -3.5 59 +1 +3 1013.3 987.4
03 24.04 ЮЗ 3 50 км 9/8 1000 м
[Cb calv Ci fib]
+4.5 -4.4 52 +2 +3 1012.6 986.8
06 24.04 Ю 2 20 км 9/9 1000 м
[Cb cap]
+4.9 -5.4 47 +3 +3 1012.3 986.6
09 24.04 ЮЗ 1 50 км 9/4 1000 м
[Cb calv Ci fib]
+3.6 -5.4 52 +3 +3 1012.7 986.8 +5.4
12 24.04 Ю 2 50 км 8/4 1000 м
[Sc Ci fib]
+0.3 -4.5 70 -3 -3 1013.2 987.0
15 24.04 штиль 0 50 км 6/3 1000 м
[Sc Ci fib]
-2.8 -4.3 89 -4 -4 1013.2 986.7
18 24.04 СЗ 1 50 км 9/3 1000 м
[Sc Ci fib]
-2.9 -4.4 89 -5 -5 1013.1 986.6
21 24.04 ЮЗ 2 50 км 9/3 600 м
[Cu hum Ci fib]
+0.7 -4.1 70 -3 -1 1012.5 986.4 -4.3 14
00 25.04 Ю 2 50 км 8/1 1000 м
[Cu med, cong Ci fib]
+3.6 -5.5 51 +1 +8 1011.6 985.7
03 25.04 Ю 4 50 км 9/3 1000 м
[Cb cap Ci fib]
+4.1 -6.0 48 0 +4 1010.6 984.8
06 25.04 Ю 2 50 км 8/3 1000 м
[Cu med, cong Ci fib]
+4.5 -6.4 45 +3 +5 1009.4 983.7
09 25.04 Ю 1 50 км 8/3 1000 м
[Sc diur, vesp Ci fib]
+3.3 -5.4 53 +2 +3 1009.2 983.4 +5.0
12 25.04 СВ 1 50 км 6/6 1000 м
[Sc]
-1.9 -3.6 88 -4 -4 1009.6 983.3
15 25.04 СЗ 1 50 км 3/3 1000 м
[Sc]
-2.2 -4.0 87 -4 -4 1008.5 982.2
18 25.04 З 1 20 км слаб. ливневой снег 9/8 1000 м
[Cb cap Ci fib]
-3.5 -4.8 91 -6 -6 1007.5 981.1
21 25.04 СЗ 2 4000 м слаб. ливневой снег 9/9 600 м
[Cb cap]
-1.3 -2.9 89 -5 -5 1006.3 980.1 -4.2 0.4 13
00 26.04 З 2 20 км {ливн. осадки} 9/8 1020 м
[Cb cap Ac trans]
+0.9 -3.0 75 -2 -1 1004.1 978.3
03 26.04 С 4 20 км в посл. час ливневой снег 9/8 1000 м
[Cb calv Ac trans]
+2.2 -3.9 64 -2 -1 1001.3 975.6

 

Местоположение метеостанции Сеймчан (Магаданская область, Россия): широта 62.91 долгота 152.40 высота над уровнем моря 210 м.

В архиве по умолчанию представлена погода в Сеймчане за последнюю неделю. Архивные данные за месяц целиком и за предыдущие месяцы, начиная с января 2011 года, Вы можете получить, выбрав интересующий диапазон дат из раскрывающегося списка и нажав кнопку "Ввод!".


*Определитесь, кто Вы:
робот инопланетянин человек

Внимание! Время в таблицах - всемирное. Для получения местного времени необходимо прибавить поправку, которая равна 11 ч.

Смотрите также архив погоды в соседних городах и на ближайших метеорологических станциях:

Погода в Среднекане (Магаданская область, Россия) (51 км)
Погода в Совхозе Эльген (Магаданская область, Россия) (92 км)
Погода в Усть-Бохапче (Магаданская область, Россия) (129 км)
Погода в Балыгычане (Магаданская область, Россия) (140 км)
Погода в Ягодной (Магаданская область, Россия) (150 км)
Погода на Озере Джека Лондона (Магаданская область, Россия) (175 км)
Погода в Омсукчане (Магаданская область, Россия) (179 км)
Погода в Талой (Магаданская область, Россия) (198 км)
Погода в Коркодоне (Магаданская область, Россия) (217 км)
Погода в Сусумане (Магаданская область, Россия) (219 км)

Пояснения к столбцам:

Ветер - указаны скорость ветра в м/с - средняя за 10 мин, порывы в срок и между сроками (в фигурных скобках) и направление, откуда дует ветер: С - северный, СВ - северо-восточный, В - восточный, ЮВ - юго-восточный, Ю - южный, ЮЗ - юго-западный, З - западный, СЗ - северо-западный.
Видимость - горизонтальная дальность видимости в метрах или километрах. При видимости от 1 до 10 км при отсутствии осадков обычно наблюдается дымка, при ухудшении видимости до 1 км и менее - туман. В сухую погоду видимость может ухудшаться дымом, пылью или мглою.
Явления - указаны атмосферные явления, наблюдавшиеся в срок или в последний час перед сроком; фигурными скобками обозначены явления, наблюдавшиеся между сроками (за 1-3 часа до срока); квадратными скобками обозначены град или гололедные отложения с указанием их диаметра в мм.
Облачность - указаны через наклонную черту общая и нижняя облачность в баллах и высота нижней границы облаков в метрах; квадратными скобками обозначены формы облаков: Ci - перистые, Cs - перисто-слоистые, Cc - перисто-кучевые, Ac - высококучевые, As - высокослоистые, Sc - слоисто-кучевые, Ns - слоисто-дождевые, Cu - кучевые, Cb - кучево-дождевые. Подробнее классификацию облаков см. в Атласе облаков (PDF).
T - Температура воздуха - температура, измеренная на высоте 2 м над землей.
Td - Температура точки росы - температура, при понижении до которой содержащийся в воздухе водяной пар достигнет насыщения.
f - Относительная влажность воздуха - влажноcть воздуха, измеренная на высоте 2 м над землей.
Te - Эффективная температура - температура, которую ощущает одетый по сезону человек в тени. Характеристика душности погоды. При расчете учитывается влияние влажности воздуха и скорости ветра на теплоощущения человека.
Tes - Эффективная температура на солнце - температура, которую ощущает человек, с поправкой на солнечный нагрев. Характеристика знойности погоды. Зависит от высоты солнца над горизонтом, облачности и скорости ветра. Ночью, в пасмурную погоду, а также при ветре 12 м/с и более поправка равна нулю.
P - Атмосферное давление - приведенное к уровню моря атмосферное давление.
Po - Атмосферное давление - измеренное на уровне метеостанции атмосферное давление.
Tmin - Минимальная температура - минимум температуры воздуха на высоте 2 м над землей.
Tmax - Максимальная температура - максимум температуры воздуха на высоте 2 м над землей.
R - Количество осадков - Количество выпавших осадков за период времени, мм. При наведении курсора мыши на число - период времени, за который выпало указанное количество осадков.
R24 - Количество осадков - Количество выпавших осадков за 24 часа, мм.
S - Снежный покров - Высота снежного покрова, см. При наведении курсора мыши на число - состояние снежного покрова и степень покрытия местности в баллах.